Zurück zum Katalog

STARLINK-32156

AktivKommunikationVLEO
NORAD 60278·PAYLOAD·🇺🇸 United States

Gestartet Jul 28, 2024 von Cape Canaveral Space Force Station

Loading…

Nächste Überflüge (nächste 24 Stunden)

TLE

AktuellSource: CelesTrak SupGP

Epoche: Sep 15, 2026, 02:49 UTC

1 60278C 24132A   26258.11784722 -.00030552  00000+0 -90253-3 0  2586
2 60278  53.1576 251.1009 0001294  85.9488 259.8611 15.34410097    15

Verfolge STARLINK-32156 in Echtzeit mit AllMySat

Download on the App Store